Tracking 17141 objects as of 6-July-2015
HD Live streaming from Space Station

SL-8 DEB

Track SL-8 DEB now!
10-day predictions
SL-8 DEB is classified as:


NORAD ID: 21250
Int'l Code: 1991-009BH
Perigee: 1,493.3 km
Apogee: 1,718.6 km
Inclination: 74.1 °
Period: 118.2 minutes
Semi major axis: 7976 km
RCS: 0.1024 m2 (medium)
Launch date: February 12, 1991
Source: Commonwealth of Independent States (former USSR) (CIS)

Note: This is SATELLITE DEBRIS
Your satellite tracking list
Your tracking list is empty





NASA's NSSDC Master Catalog

Two Line Element Set (TLE):
1 21250U 91009BH  15186.50128351  .00000056  00000-0  67639-3 0  9990
2 21250 074.0587 219.4570 0141226 237.3640 243.2894 12.18560109 82322

Source of the keplerian elements: AFSPC

N2YO: 222